Tracking 19242 objects as of 15-Aug-2018
HD Live streaming from Space Station
objects crossing your sky now

CZ-3B R/B

Track CZ-3B R/B now!


NORAD ID: 25405
Int'l Code: 1998-044B
Perigee: 575.5 km
Apogee: 35,795.1 km
Inclination: 18.8 °
Period: 638.3 minutes
Semi major axis: 24556 km
RCS: 22.0892 m2 (large)
Launch date: July 18, 1998
Source: People's Republic of China (PRC)
Launch site: Xichang Space Center, China (XSC)

Note: This is a ROCKET BODY
aabbcc
Your satellite tracking list
Your tracking list is empty




NASA's NSSDC Master Catalog

Two Line Element Set (TLE):
1 25405U 98044B   18226.22314880 -.00000116 +00000-0 +51749-3 0  9996
2 25405 018.8295 311.9589 7171176 347.6736 003.7197 02.25609958165413
Source of the keplerian elements: AFSPC